Simultaneous Nadir Overpasses (SNOs) Predictions

Prediction of SNOs between LANDSAT-8 and NOAA-19 Satellite Orbit:

Table of predicted SNOs for the next 14.0 days since TLE Epoch: 7/16/2022
Index Date (LANDSAT-8) Time (LANDSAT-8) Lat,Lon (LANDSAT-8) SZA (LANDSAT-8 ) Date (NOAA-19) Time (NOAA-19) Lat,Lon (NOAA-19) SZA (NOAA-19 ) Distance(km) Time Diff (sec)
1 07/16/2022 19:59:39 80.81, -84.11 61.21 07/16/2022 19:58:42 80.82, -84.16 61.19 1.70 57
2 07/16/2022 20:49:06 -80.81, 83.49 118.79 07/16/2022 20:49:39 -80.81, 83.55 118.77 1.12 33
3 07/19/2022 02:22:52 80.80,-179.98 61.59 07/19/2022 02:22:35 80.82,-179.83 61.61 3.11 17
4 07/19/2022 03:12:17 -80.86, -11.68 118.30 07/19/2022 03:13:31 -80.79, -11.54 118.31 7.44 74
5 07/21/2022 07:56:38 -80.82, -83.26 117.98 07/21/2022 07:55:29 -80.82, -83.30 118.00 1.06 69
6 07/21/2022 08:46:04 80.82, 84.42 62.04 07/21/2022 08:46:28 80.81, 84.45 62.05 0.83 24
7 07/23/2022 14:19:50 -80.83,-178.90 117.50 07/23/2022 14:19:22 -80.82,-178.84 117.52 1.82 28
8 07/23/2022 15:09:17 80.80, -11.58 62.46 07/23/2022 15:10:22 80.82, -11.69 62.49 2.64 65
9 07/25/2022 20:43:03 -80.81, 85.05 117.06 07/25/2022 20:43:16 -80.82, 85.21 117.03 2.90 13
10 07/28/2022 02:16:47 80.84,-178.06 63.49 07/28/2022 02:16:09 80.82,-178.18 63.46 2.51 38



Historial Predications of SNOs between LANDSAT-8 and NOAA-19
